Regional Weather Roundup
Issued by NWS Portland, ME

Home | Current Version | Previous Version | Text Only | Print | Product List | Glossary On
Versions: 1 2 3 4 5 6 7 8 9 10 11 12 13 14 15 16 17 18 19 20 21 22 23 24 25 26 27 28 29 30 31 32 33 34 35 36 37 38 39 40 41 42 43 44 45 46 47 48 49 50
906
ASUS41 KGYX 210910
RWRGYX
WEATHER ROUNDUP FOR MAINE AND NEW HAMPSHIRE
NATIONAL WEATHER SERVICE GRAY ME
500 AM EDT SAT OCT 21 2017

MEZ002-005-006-010-012-015-018-020-021-024-026-027-029-211000-
MAINE

CITY           SKY/WX    TMP DP  RH WIND       PRES   REMARKS
PORTLAND       CLOUDY    46  36  68 CALM      30.19R
SANFORD        PTCLDY    38  36  92 W5        30.21R
BAR HARBOR     PTCLDY    47  38  71 W6        30.17R
WISCASSET      MOCLDY    42  38  85 CALM      30.20R
ROCKLAND       PTCLDY    41  38  89 W6        30.17R
FRYEBURG       CLOUDY    44  41  89 CALM      30.17R
LEWISTONAUBURN MOCLDY    42  37  82 CALM      30.18R
AUGUSTA        PTCLDY    50  36  58 SW6       30.17R
WATERVILLE     MOCLDY    44  38  79 CALM      30.14R
BANGOR         PTCLDY    43  36  76 CALM      30.17R
GREENVILLE       N/A     44  34  67 N5        30.13R
MILLINOCKET    CLEAR     46  36  68 NW7       30.15R
HOULTON        CLEAR     37  33  85 CALM      30.13R
PRESQUE ISLE   CLEAR     29  27  92 CALM      30.14R
FRENCHVILLE    CLEAR     37  28  70 NW9       30.11R
CARIBOU        CLEAR     36  30  79 W3        30.12R
$$

NHZ002-005-008-009-011-012-014-211000-
NEW HAMPSHIRE

CITY           SKY/WX    TMP DP  RH WIND       PRES   REMARKS
PORTSMOUTH     MOCLDY    49  38  66 W5        30.19R
ROCHESTER      PTCLDY    54  33  45 VRB5      30.20R
NASHUA         CLEAR     42  39  89 NW5       30.23R
MANCHESTER     PTCLDY    46  39  76 CALM      30.21R
CONCORD        CLOUDY    41  36  82 CALM      30.22S
LACONIA        PTCLDY    48  41  76 SW3       30.22R
PLYMOUTH       FAIR      38  35  89 CALM      30.23R
BERLIN         CLEAR     31  30  96 CALM      30.21R
WHITEFIELD     CLOUDY    30  28  92 CALM      30.23R
JAFFREY        CLEAR     41  39  93 S5        30.24S
KEENE          CLEAR     35  34  96 S10       30.26S
LEBANON        PTCLDY    37  34  89 CALM      30.24R
MT WASHINGTON  PTCLDY    36  28  75 NW49G55     N/A
$$

VTZ005-007-008-211000-
VERMONT

CITY           SKY/WX    TMP DP  RH WIND       PRES   REMARKS
ST JOHNSBURY     N/A     36  35  96 MISG      30.23R
BURLINGTON     PTCLDY    46  39  76 CALM      30.20S
$$

MAZ007-012-024-CTZ003-RIZ002-NYZ038-NYZ072-211000-
SOUTHERN NEW ENGLAND AND NY

CITY           SKY/WX    TMP DP  RH WIND       PRES   REMARKS
BOSTON         CLEAR     55  37  50 W8        30.22R
WORCESTER      CLEAR     53  32  44 W13       30.24R
NANTUCKET      CLEAR     52  49  89 N5        30.21R
PROVIDENCE     CLEAR     47  41  80 CALM      30.23R
HARTFORD       CLEAR     42  40  92 CALM      30.25R
ALBANY         CLEAR     43  36  76 CALM      30.26S
NEW YORK CITY  PTCLDY    61  43  51 N3        30.26R
$$

ANZ081-ANZ082-ANZ150-NHZ014-MEZ023>029-211000-
COASTAL MARINE OBSERVATIONS

STATION/POSITION TIME  TEMP    WIND        PRES    WAVE
                       AIR SEA DIR/SP/G            HT/PER
                 (UTC) (F)     (DEG/KT/KT) (MB)    (FT/S)
MOUNT DESERT ROC 0900   55     270/  8/  9 1021.7R
MATINICUS ROCK   0800   55     290/  9/ 10 1020.8R
ISLE OF SHOALS   0800   57     270/  9/ 10 1021.7R
JEFFREYS LEDGE   0836      58                N/A     1/ 8
GEORGES BANK BUO 0750   59 58              1019.6    4/ 5
$$

.............KEY..............
   WCI - WIND CHILL
   TC  - TEMPERATURE IN CELSIUS
   VSB - VISIBILITY IN MILES
   HX  - HEAT INDEX
   FAIR- INDICATES FEW OR NO CLOUDS BELOW 12,000 FT, WITH NO
         SIGNIFICANT WEATHER AND/OR OBSTRUCTIONS TO VISIBILITY.






USA.gov is the U.S. government's official web portal to all federal, state and local government web resources and services.